AAL2860 KDFW-KSLC

Flight info

Callsign AAL2860
Flight time N/A
Altitude 34000
Route HUDAD2 HUDAD PNH ALS JNC J12 HELPR PITTT2
Aircraft A321/M-SDE3FGHIRWY/LB1

Departure

Time 2026-05-07 13:22
Airport Dallas Fort Worth International Airport (KDFW)

Arrival

Time N/A
Airport Salt Lake City International Airport (KSLC)
Time Latitude Longitude Altitude Speed Heading
2026-05-07 12:51 32.89296 -97.04274 598 ft 0 kts 84°
2026-05-07 13:15 32.89295 -97.04298 598 ft 4 kts 105°
2026-05-07 13:15 32.89303 -97.04320 598 ft 4 kts 107°
2026-05-07 13:15 32.89298 -97.04340 598 ft 3 kts 46°
2026-05-07 13:15 32.89282 -97.04360 598 ft 2 kts 46°
2026-05-07 13:16 32.89281 -97.04361 598 ft 0 kts 46°
2026-05-07 13:17 32.89292 -97.04353 598 ft 5 kts 24°
2026-05-07 13:18 32.89351 -97.04362 598 ft 12 kts 350°
2026-05-07 13:18 32.89428 -97.04414 598 ft 14 kts 275°
2026-05-07 13:18 32.89427 -97.04545 598 ft 17 kts 272°
2026-05-07 13:18 32.89429 -97.04692 596 ft 19 kts 271°
2026-05-07 13:19 32.89403 -97.04833 596 ft 17 kts 264°
2026-05-07 13:19 32.89326 -97.04890 596 ft 16 kts 181°
2026-05-07 13:19 32.89187 -97.04890 592 ft 24 kts 181°
2026-05-07 13:19 32.89009 -97.04891 591 ft 26 kts 180°
2026-05-07 13:20 32.88822 -97.04892 587 ft 28 kts 180°
2026-05-07 13:20 32.88626 -97.04893 589 ft 27 kts 180°
2026-05-07 13:20 32.88436 -97.04892 589 ft 28 kts 180°
2026-05-07 13:20 32.88246 -97.04894 590 ft 28 kts 180°
2026-05-07 13:21 32.88053 -97.04895 588 ft 28 kts 180°
2026-05-07 13:21 32.87913 -97.04930 585 ft 16 kts 255°
2026-05-07 13:21 32.87915 -97.05060 587 ft 15 kts 288°
2026-05-07 13:21 32.88013 -97.05090 589 ft 28 kts
2026-05-07 13:22 32.88463 -97.05089 590 ft 99 kts
2026-05-07 13:22 32.89351 -97.05084 598 ft 153 kts
2026-05-07 13:22 32.90506 -97.05077 1016 ft 165 kts 359°
2026-05-07 13:22 32.91657 -97.05100 1751 ft 165 kts
2026-05-07 13:23 32.92809 -97.05131 2399 ft 167 kts
2026-05-07 13:23 32.94028 -97.05158 2669 ft 185 kts
2026-05-07 13:23 32.95388 -97.05183 2817 ft 206 kts
2026-05-07 13:23 32.96910 -97.05205 2974 ft 232 kts
2026-05-07 13:24 32.98573 -97.05226 3517 ft 241 kts
2026-05-07 13:24 33.00252 -97.05249 4307 ft 242 kts 359°
2026-05-07 13:24 33.01943 -97.05270 5087 ft 244 kts 359°
2026-05-07 13:24 33.03660 -97.05290 5743 ft 250 kts 358°
2026-05-07 13:25 33.05384 -97.05590 6350 ft 254 kts 335°
2026-05-07 13:25 33.06824 -97.06776 6922 ft 256 kts 309°
2026-05-07 13:25 33.07651 -97.08667 7417 ft 262 kts 282°
2026-05-07 13:25 33.08001 -97.10807 8095 ft 264 kts 281°
2026-05-07 13:26 33.08328 -97.12968 8829 ft 265 kts 276°
2026-05-07 13:26 33.08288 -97.15170 9567 ft 268 kts 262°
2026-05-07 13:26 33.07936 -97.17355 10259 ft 271 kts 261°
2026-05-07 13:26 33.07568 -97.19648 10446 ft 293 kts 261°
2026-05-07 13:27 33.07176 -97.22125 10561 ft 314 kts 261°
2026-05-07 13:27 33.06764 -97.24734 10923 ft 325 kts 261°
2026-05-07 13:27 33.06343 -97.27389 11562 ft 326 kts 261°
2026-05-07 13:27 33.05922 -97.30047 12293 ft 325 kts 261°
2026-05-07 13:28 33.05505 -97.32691 13047 ft 324 kts 261°
2026-05-07 13:28 33.05090 -97.35326 13825 ft 323 kts 262°
2026-05-07 13:28 33.04673 -97.37955 14504 ft 323 kts 261°
2026-05-07 13:28 33.04254 -97.40582 15137 ft 323 kts 261°
2026-05-07 13:29 33.03835 -97.43208 15745 ft 324 kts 261°
2026-05-07 13:29 33.03408 -97.45866 16359 ft 326 kts 261°
2026-05-07 13:29 33.02981 -97.48518 16977 ft 327 kts 261°
2026-05-07 13:29 33.02552 -97.51185 17481 ft 328 kts 261°
2026-05-07 13:30 33.02122 -97.53866 18063 ft 330 kts 260°
2026-05-07 13:30 33.01691 -97.56559 18609 ft 331 kts 260°
2026-05-07 13:30 33.01385 -97.58475 18957 ft 333 kts 260°
2026-05-07 13:30 33.00947 -97.61193 19410 ft 335 kts 260°
2026-05-07 13:31 33.00506 -97.63930 19891 ft 337 kts 260°
2026-05-07 13:31 33.00062 -97.66683 20379 ft 339 kts 260°
2026-05-07 13:31 32.99616 -97.69450 20860 ft 341 kts 261°
2026-05-07 13:31 32.99425 -97.72267 21314 ft 343 kts 271°
2026-05-07 13:32 32.99783 -97.75084 21749 ft 348 kts 282°
2026-05-07 13:32 33.00658 -97.77802 22182 ft 354 kts 289°
2026-05-07 13:32 33.01671 -97.80489 22625 ft 356 kts 289°
2026-05-07 13:32 33.02688 -97.83195 23068 ft 358 kts 289°
2026-05-07 13:33 33.03709 -97.85915 23487 ft 361 kts 289°
2026-05-07 13:33 33.04738 -97.88651 24010 ft 363 kts 288°
2026-05-07 13:33 33.05772 -97.91402 24346 ft 364 kts 288°
2026-05-07 13:33 33.06807 -97.94161 24695 ft 366 kts 288°
2026-05-07 13:34 33.07846 -97.96941 25030 ft 368 kts 288°
2026-05-07 13:34 33.09933 -98.02548 25665 ft 372 kts 287°
2026-05-07 13:34 33.10986 -98.05374 25987 ft 374 kts 287°
2026-05-07 13:35 33.12045 -98.08218 26309 ft 376 kts 287°
2026-05-07 13:35 33.13106 -98.11073 26630 ft 377 kts 287°
2026-05-07 13:35 33.14170 -98.13940 26943 ft 379 kts 287°
2026-05-07 13:35 33.15238 -98.16813 27251 ft 380 kts 286°
2026-05-07 13:36 33.16312 -98.19707 27545 ft 382 kts 286°
2026-05-07 13:36 33.17390 -98.22614 27846 ft 384 kts 286°
2026-05-07 13:36 33.18473 -98.25533 28133 ft 385 kts 286°
2026-05-07 13:36 33.19562 -98.28466 28429 ft 387 kts 286°
2026-05-07 13:37 33.20653 -98.31412 28726 ft 389 kts 285°
2026-05-07 13:37 33.21748 -98.34371 29030 ft 390 kts 285°
2026-05-07 13:37 33.22835 -98.37307 29281 ft 393 kts 285°
2026-05-07 13:37 33.23943 -98.40302 29552 ft 395 kts 285°
2026-05-07 13:38 33.25056 -98.43309 29867 ft 396 kts 285°
2026-05-07 13:38 33.26170 -98.46311 30276 ft 395 kts 285°
2026-05-07 13:38 33.27281 -98.49304 30615 ft 393 kts 285°
2026-05-07 13:38 33.28382 -98.52283 30955 ft 392 kts 285°
2026-05-07 13:39 33.29482 -98.55258 31299 ft 391 kts 285°
2026-05-07 13:39 33.30578 -98.58222 31647 ft 389 kts 284°
2026-05-07 13:39 33.31669 -98.61177 31985 ft 388 kts 284°
2026-05-07 13:39 33.32751 -98.64124 32315 ft 386 kts 284°
2026-05-07 13:40 33.33826 -98.67058 32651 ft 385 kts 284°
2026-05-07 13:40 33.34899 -98.69986 32979 ft 384 kts 284°
2026-05-07 13:40 33.35968 -98.72906 33292 ft 383 kts 284°
2026-05-07 13:40 33.37031 -98.75818 33571 ft 383 kts 284°
2026-05-07 13:41 33.38096 -98.78733 33939 ft 381 kts 284°
2026-05-07 13:41 33.38813 -98.80694 34127 ft 380 kts 284°
2026-05-07 13:41 33.39869 -98.83579 34189 ft 376 kts 284°
2026-05-07 13:42 33.41940 -98.89245 34190 ft 373 kts 284°
2026-05-07 13:42 33.44010 -98.94932 34196 ft 372 kts 284°
2026-05-07 13:43 33.46089 -99.00656 34199 ft 372 kts 284°
2026-05-07 13:43 33.48151 -99.06334 34196 ft 372 kts 283°
2026-05-07 13:44 33.50209 -99.12024 34185 ft 373 kts 283°
2026-05-07 13:44 33.52268 -99.17735 34185 ft 374 kts 283°
2026-05-07 13:45 33.54342 -99.23458 34189 ft 375 kts 283°
2026-05-07 13:45 33.56401 -99.29156 34198 ft 375 kts 283°
2026-05-07 13:46 33.58471 -99.34901 34205 ft 375 kts 283°
2026-05-07 13:46 33.60554 -99.40690 34243 ft 376 kts 284°
2026-05-07 13:46 33.61808 -99.43483 34244 ft 387 kts 293°
2026-05-07 13:47 33.63492 -99.46005 34233 ft 397 kts 299°
2026-05-07 13:47 33.67163 -99.50970 34221 ft 398 kts 299°
2026-05-07 13:48 33.70835 -99.55943 34220 ft 398 kts 299°
2026-05-07 13:48 33.74502 -99.60929 34219 ft 398 kts 299°
2026-05-07 13:49 33.78159 -99.65926 34218 ft 398 kts 299°
2026-05-07 13:49 33.81816 -99.70928 34218 ft 398 kts 299°
2026-05-07 13:50 33.85469 -99.75915 34217 ft 395 kts 299°
2026-05-07 13:50 33.89089 -99.80857 34220 ft 394 kts 299°
2026-05-07 13:51 33.92703 -99.85815 34214 ft 394 kts 299°
2026-05-07 13:51 33.96321 -99.90790 34217 ft 395 kts 299°
2026-05-07 13:52 33.99949 -99.95770 34207 ft 395 kts 299°
2026-05-07 13:52 34.03579 -100.00754 34218 ft 396 kts 299°
2026-05-07 13:53 34.07207 -100.05743 34248 ft 395 kts 300°
2026-05-07 13:53 34.10826 -100.10735 34242 ft 395 kts 299°
2026-05-07 13:54 34.14431 -100.15724 34237 ft 394 kts 299°
2026-05-07 13:54 34.18023 -100.20705 34252 ft 393 kts 300°
2026-05-07 13:55 34.21623 -100.25691 34240 ft 394 kts 300°
2026-05-07 13:55 34.25224 -100.30689 34238 ft 394 kts 300°
2026-05-07 13:56 34.28831 -100.35693 34206 ft 395 kts 300°
2026-05-07 13:56 34.32438 -100.40709 34229 ft 395 kts 300°
2026-05-07 13:57 34.36039 -100.45731 34215 ft 395 kts 300°
2026-05-07 13:57 34.39632 -100.50748 34215 ft 395 kts 300°
2026-05-07 13:58 34.43228 -100.55773 34217 ft 395 kts 300°
2026-05-07 13:58 34.46820 -100.60805 34204 ft 395 kts 300°
2026-05-07 13:59 34.50420 -100.65851 34199 ft 396 kts 300°
2026-05-07 13:59 34.54026 -100.70909 34221 ft 396 kts 300°
2026-05-07 14:00 34.57605 -100.75944 34206 ft 397 kts 300°
2026-05-07 14:00 34.61215 -100.81013 34201 ft 397 kts 300°
2026-05-07 14:01 34.64827 -100.86100 34202 ft 398 kts 300°
2026-05-07 14:01 34.68434 -100.91200 34202 ft 398 kts 300°
2026-05-07 14:02 34.72043 -100.96306 34203 ft 398 kts 300°
2026-05-07 14:02 34.75651 -101.01416 34231 ft 398 kts 300°
2026-05-07 14:03 34.79243 -101.06514 34212 ft 396 kts 300°
2026-05-07 14:03 34.82832 -101.11613 34207 ft 397 kts 300°
2026-05-07 14:04 34.86426 -101.16719 34208 ft 397 kts 300°
2026-05-07 14:04 34.90011 -101.21827 34204 ft 397 kts 300°
2026-05-07 14:05 34.93599 -101.26947 34203 ft 397 kts 300°
2026-05-07 14:05 34.97185 -101.32071 34235 ft 397 kts 301°
2026-05-07 14:06 35.00768 -101.37203 34217 ft 397 kts 301°
2026-05-07 14:06 35.04355 -101.42339 34209 ft 398 kts 301°
2026-05-07 14:07 35.07946 -101.47481 34213 ft 398 kts 301°
2026-05-07 14:07 35.11532 -101.52635 34209 ft 398 kts 301°
2026-05-07 14:08 35.15112 -101.57790 34209 ft 398 kts 301°
2026-05-07 14:08 35.18695 -101.62951 34265 ft 398 kts 301°
2026-05-07 14:09 35.22271 -101.68115 34271 ft 398 kts 301°
2026-05-07 14:09 35.25490 -101.73523 34248 ft 392 kts 295°
2026-05-07 14:10 35.28507 -101.79087 34244 ft 393 kts 295°
2026-05-07 14:10 35.31537 -101.84662 34240 ft 394 kts 295°
2026-05-07 14:11 35.34570 -101.90249 34223 ft 394 kts 295°
2026-05-07 14:11 35.37598 -101.95846 34216 ft 394 kts 295°
2026-05-07 14:12 35.40618 -102.01446 34209 ft 394 kts 295°
2026-05-07 14:12 35.43626 -102.07015 34196 ft 394 kts 295°
2026-05-07 14:13 35.46658 -102.12628 34195 ft 395 kts 295°
2026-05-07 14:13 35.49687 -102.18251 34198 ft 395 kts 295°
2026-05-07 14:14 35.52712 -102.23886 34198 ft 395 kts 295°
2026-05-07 14:14 35.55730 -102.29529 34199 ft 395 kts 295°
2026-05-07 14:15 35.58745 -102.35175 34199 ft 395 kts 295°
2026-05-07 14:15 35.61759 -102.40819 34215 ft 396 kts 296°
2026-05-07 14:16 35.64793 -102.46502 34165 ft 399 kts 297°
2026-05-07 14:16 35.67848 -102.52233 34162 ft 402 kts 297°
2026-05-07 14:17 35.70919 -102.58000 34163 ft 404 kts 297°
2026-05-07 14:17 35.73998 -102.63788 34163 ft 404 kts 297°
2026-05-07 14:18 35.77068 -102.69593 34170 ft 405 kts 297°
2026-05-07 14:18 35.80141 -102.75408 34180 ft 405 kts 296°
2026-05-07 14:19 35.83215 -102.81234 34154 ft 407 kts 298°
2026-05-07 14:19 35.86310 -102.87097 34152 ft 410 kts 298°
2026-05-07 14:20 35.89429 -102.93019 34150 ft 413 kts 298°
2026-05-07 14:20 35.92560 -102.98975 34150 ft 414 kts 298°
2026-05-07 14:21 35.95695 -103.04953 34152 ft 415 kts 298°
2026-05-07 14:21 35.98831 -103.10945 34164 ft 416 kts 298°
2026-05-07 14:22 36.01976 -103.16946 34171 ft 417 kts 299°
2026-05-07 14:22 36.05125 -103.22977 34167 ft 419 kts 299°
2026-05-07 14:23 36.08284 -103.29036 34168 ft 420 kts 299°
2026-05-07 14:23 36.11444 -103.35110 34175 ft 421 kts 299°
2026-05-07 14:24 36.14608 -103.41205 34185 ft 421 kts 299°
2026-05-07 14:24 36.17766 -103.47315 34190 ft 421 kts 299°
2026-05-07 14:25 36.20391 -103.52403 34193 ft 422 kts 299°
2026-05-07 14:25 36.23554 -103.58532 34212 ft 423 kts 299°
2026-05-07 14:26 36.27241 -103.65677 34225 ft 423 kts 299°
2026-05-07 14:26 36.29893 -103.70821 34225 ft 423 kts 299°
2026-05-07 14:27 36.33053 -103.76975 34230 ft 423 kts 299°
2026-05-07 14:27 36.36211 -103.83134 34239 ft 423 kts 299°
2026-05-07 14:28 36.39371 -103.89296 34219 ft 423 kts 299°
2026-05-07 14:28 36.42507 -103.95433 34271 ft 424 kts 299°
2026-05-07 14:29 36.45668 -104.01642 34266 ft 422 kts 299°
2026-05-07 14:29 36.48781 -104.07755 34288 ft 421 kts 299°
2026-05-07 14:30 36.51907 -104.13907 34280 ft 421 kts 299°
2026-05-07 14:30 36.55050 -104.20096 34277 ft 420 kts 299°
2026-05-07 14:31 36.58161 -104.26244 34270 ft 420 kts 300°
2026-05-07 14:31 36.61251 -104.32370 34282 ft 421 kts 300°
2026-05-07 14:32 36.64384 -104.38577 34275 ft 421 kts 300°
2026-05-07 14:32 36.67471 -104.44709 34263 ft 420 kts 300°
2026-05-07 14:33 36.70569 -104.50884 34262 ft 420 kts 300°
2026-05-07 14:33 36.73661 -104.57060 34261 ft 420 kts 300°
2026-05-07 14:34 36.76754 -104.63237 34262 ft 420 kts 300°
2026-05-07 14:34 36.79849 -104.69413 34283 ft 420 kts 300°
2026-05-07 14:35 36.82935 -104.75595 34271 ft 419 kts 300°
2026-05-07 14:35 36.86015 -104.81765 34266 ft 419 kts 300°
2026-05-07 14:36 36.89092 -104.87947 34257 ft 419 kts 300°
2026-05-07 14:36 36.92162 -104.94137 34234 ft 419 kts 301°
2026-05-07 14:37 36.95225 -105.00330 34236 ft 419 kts 301°
2026-05-07 14:37 36.99826 -105.09648 34259 ft 420 kts 301°
2026-05-07 14:38 37.02895 -105.15871 34260 ft 420 kts 301°
2026-05-07 14:38 37.05965 -105.22103 34277 ft 421 kts 301°
2026-05-07 14:39 37.09030 -105.28349 34274 ft 421 kts 301°
2026-05-07 14:39 37.12092 -105.34606 34265 ft 421 kts 301°
2026-05-07 14:40 37.15153 -105.40871 34293 ft 422 kts 301°
2026-05-07 14:40 37.18214 -105.47141 34316 ft 422 kts 301°
2026-05-07 14:41 37.21276 -105.53402 34334 ft 421 kts 302°
2026-05-07 14:41 37.24334 -105.59673 34332 ft 421 kts 301°
2026-05-07 14:42 37.27357 -105.65914 34318 ft 421 kts 301°
2026-05-07 14:42 37.30399 -105.72208 34315 ft 422 kts 302°
2026-05-07 14:43 37.33449 -105.78514 34315 ft 423 kts 302°
2026-05-07 14:43 37.36749 -105.84619 34318 ft 423 kts 307°
2026-05-07 14:44 37.40292 -105.90514 34327 ft 423 kts 307°
2026-05-07 14:44 37.43839 -105.96426 34348 ft 423 kts 307°
2026-05-07 14:45 37.47382 -106.02350 34331 ft 424 kts 307°
2026-05-07 14:45 37.50929 -106.08289 34320 ft 425 kts 307°
2026-05-07 14:46 37.54472 -106.14252 34359 ft 425 kts 307°
2026-05-07 14:46 37.58016 -106.20213 34363 ft 424 kts 307°
2026-05-07 14:47 37.61548 -106.26160 34360 ft 424 kts 307°
2026-05-07 14:47 37.65077 -106.32112 34363 ft 423 kts 307°
2026-05-07 14:48 37.68600 -106.38067 34353 ft 423 kts 308°
2026-05-07 14:48 37.72118 -106.44024 34357 ft 423 kts 308°
2026-05-07 14:49 37.75621 -106.49985 34362 ft 422 kts 308°
2026-05-07 14:49 37.79113 -106.55933 34348 ft 421 kts 308°
2026-05-07 14:50 37.82593 -106.61859 34333 ft 420 kts 308°
2026-05-07 14:50 37.86066 -106.67787 34312 ft 419 kts 308°
2026-05-07 14:51 37.89533 -106.73716 34294 ft 419 kts 308°
2026-05-07 14:51 37.92995 -106.79641 34313 ft 418 kts 308°
2026-05-07 14:52 37.96421 -106.85513 34312 ft 417 kts 308°
2026-05-07 14:52 37.99858 -106.91418 34316 ft 416 kts 308°
2026-05-07 14:53 38.03284 -106.97321 34309 ft 415 kts 308°
2026-05-07 14:53 38.06703 -107.03211 34323 ft 415 kts 308°
2026-05-07 14:54 38.10123 -107.09112 34305 ft 415 kts 308°
2026-05-07 14:54 38.13540 -107.15026 34323 ft 415 kts 308°
2026-05-07 14:55 38.16951 -107.20957 34308 ft 416 kts 308°
2026-05-07 14:55 38.20361 -107.26889 34318 ft 416 kts 308°
2026-05-07 14:56 38.23772 -107.32822 34289 ft 415 kts 308°
2026-05-07 14:56 38.27181 -107.38763 34309 ft 416 kts 308°
2026-05-07 14:57 38.30583 -107.44711 34300 ft 415 kts 308°
2026-05-07 14:57 38.33983 -107.50661 34276 ft 415 kts 308°
2026-05-07 14:58 38.37379 -107.56612 34275 ft 415 kts 308°
2026-05-07 14:58 38.40765 -107.62559 34256 ft 415 kts 308°
2026-05-07 14:59 38.44152 -107.68518 34258 ft 415 kts 308°
2026-05-07 14:59 38.47535 -107.74483 34243 ft 414 kts 308°
2026-05-07 15:00 38.50908 -107.80448 34240 ft 414 kts 308°
2026-05-07 15:00 38.54279 -107.86413 34323 ft 414 kts 308°
2026-05-07 15:01 38.57653 -107.92378 34326 ft 414 kts 308°
2026-05-07 15:01 38.61019 -107.98347 34315 ft 414 kts 308°
2026-05-07 15:02 38.64377 -108.04328 34303 ft 414 kts 307°
2026-05-07 15:02 38.67705 -108.10266 34341 ft 413 kts 307°
2026-05-07 15:03 38.71046 -108.16238 34342 ft 412 kts 307°
2026-05-07 15:03 38.74386 -108.22204 34330 ft 412 kts 307°
2026-05-07 15:04 38.77722 -108.28170 34305 ft 412 kts 307°
2026-05-07 15:04 38.81048 -108.34138 34303 ft 412 kts 307°
2026-05-07 15:05 38.84366 -108.40123 34273 ft 411 kts 307°
2026-05-07 15:05 38.87681 -108.46100 34235 ft 411 kts 307°
2026-05-07 15:06 38.90993 -108.52083 34246 ft 411 kts 307°
2026-05-07 15:06 38.94304 -108.58076 34254 ft 411 kts 307°
2026-05-07 15:07 38.97611 -108.64070 34282 ft 411 kts 307°
2026-05-07 15:07 39.00917 -108.70061 34277 ft 410 kts 307°
2026-05-07 15:08 39.04204 -108.76050 34211 ft 409 kts 307°
2026-05-07 15:08 39.07192 -108.82287 34194 ft 411 kts 300°
2026-05-07 15:09 39.09836 -108.88815 34200 ft 411 kts 300°
2026-05-07 15:09 39.12482 -108.95348 34201 ft 411 kts 300°
2026-05-07 15:10 39.15126 -109.01878 34198 ft 411 kts 300°
2026-05-07 15:10 39.17765 -109.08429 34205 ft 412 kts 300°
2026-05-07 15:11 39.20399 -109.14983 34186 ft 412 kts 300°
2026-05-07 15:11 39.23033 -109.21546 34192 ft 412 kts 300°
2026-05-07 15:12 39.25221 -109.27001 34191 ft 412 kts 300°
2026-05-07 15:12 39.27850 -109.33582 34209 ft 413 kts 300°
2026-05-07 15:13 39.30481 -109.40164 34204 ft 412 kts 300°
2026-05-07 15:13 39.33097 -109.46743 34183 ft 411 kts 300°
2026-05-07 15:14 39.35706 -109.53317 34168 ft 411 kts 300°
2026-05-07 15:14 39.38316 -109.59889 34172 ft 412 kts 300°
2026-05-07 15:15 39.40927 -109.66479 34163 ft 412 kts 300°
2026-05-07 15:15 39.43519 -109.73079 34189 ft 411 kts 300°
2026-05-07 15:16 39.46111 -109.79671 34179 ft 410 kts 300°
2026-05-07 15:16 39.48702 -109.86246 34163 ft 410 kts 300°
2026-05-07 15:17 39.51284 -109.92826 34164 ft 410 kts 300°
2026-05-07 15:17 39.53862 -109.99411 34164 ft 410 kts 300°
2026-05-07 15:18 39.56432 -110.05993 34160 ft 410 kts 300°
2026-05-07 15:18 39.58999 -110.12586 34183 ft 409 kts 300°
2026-05-07 15:19 39.61556 -110.19173 34161 ft 408 kts 300°
2026-05-07 15:19 39.64112 -110.25750 34171 ft 409 kts 300°
2026-05-07 15:20 39.66667 -110.32334 34168 ft 409 kts 300°
2026-05-07 15:20 39.69211 -110.38932 34176 ft 409 kts 300°
2026-05-07 15:21 39.71735 -110.45494 34175 ft 409 kts 300°
2026-05-07 15:21 39.74290 -110.52139 34181 ft 409 kts 300°
2026-05-07 15:22 39.76831 -110.58752 34176 ft 409 kts 300°
2026-05-07 15:22 39.79365 -110.65376 34170 ft 410 kts 300°
2026-05-07 15:23 39.81894 -110.71992 34152 ft 413 kts 300°
2026-05-07 15:23 39.84451 -110.78699 34149 ft 415 kts 300°
2026-05-07 15:24 39.87009 -110.85443 34134 ft 416 kts 300°
2026-05-07 15:24 39.89572 -110.92210 34145 ft 418 kts 300°
2026-05-07 15:25 39.92142 -110.99000 34148 ft 418 kts 300°
2026-05-07 15:25 39.94715 -111.05798 34156 ft 418 kts 300°
2026-05-07 15:26 39.97279 -111.12607 34158 ft 419 kts 300°
2026-05-07 15:26 39.99835 -111.19436 34130 ft 420 kts 300°
2026-05-07 15:27 40.02398 -111.26279 34160 ft 420 kts 300°
2026-05-07 15:27 40.04967 -111.33124 34157 ft 420 kts 300°
2026-05-07 15:28 40.07523 -111.39972 34162 ft 420 kts 300°
2026-05-07 15:28 40.10073 -111.46832 34155 ft 420 kts 300°
2026-05-07 15:29 40.12616 -111.53700 34161 ft 420 kts 299°
2026-05-07 15:29 40.15166 -111.60563 34228 ft 419 kts 300°
2026-05-07 15:30 40.17700 -111.67427 34224 ft 419 kts 299°
2026-05-07 15:30 40.20228 -111.74286 34232 ft 418 kts 299°
2026-05-07 15:31 40.22754 -111.81145 34205 ft 419 kts 300°
2026-05-07 15:31 40.25275 -111.88013 34196 ft 419 kts 299°
2026-05-07 15:32 40.28377 -111.94350 34178 ft 411 kts 320°
2026-05-07 15:32 40.30693 -111.96496 34190 ft 408 kts 331°
2026-05-07 15:32 40.33154 -111.98350 34168 ft 408 kts 330°
2026-05-07 15:33 40.38078 -112.02058 34138 ft 408 kts 330°
2026-05-07 15:33 40.43233 -112.05079 34134 ft 408 kts 348°
2026-05-07 15:34 40.48887 -112.05912 34165 ft 409 kts 352°
2026-05-07 15:34 40.54549 -112.06650 34185 ft 409 kts 352°
2026-05-07 15:35 40.60198 -112.07393 34196 ft 408 kts 352°
2026-05-07 15:35 40.65856 -112.08137 34184 ft 408 kts 352°
2026-05-07 15:36 40.71519 -112.08805 34170 ft 409 kts 353°
2026-05-07 15:36 40.77173 -112.09440 34119 ft 403 kts 353°
2026-05-07 15:37 40.79912 -112.09754 34139 ft 387 kts 353°
2026-05-07 15:37 40.82540 -112.10061 34140 ft 372 kts 352°
2026-05-07 15:37 40.85071 -112.10358 34144 ft 358 kts 352°
2026-05-07 15:37 40.87510 -112.10646 34128 ft 347 kts 352°
2026-05-07 15:38 40.92293 -112.11218 34113 ft 344 kts 352°
2026-05-07 15:38 40.94684 -112.11049 34098 ft 350 kts 13°
2026-05-07 15:38 40.96852 -112.09485 34123 ft 367 kts 37°
2026-05-07 15:39 40.98380 -112.06698 34131 ft 388 kts 61°
2026-05-07 15:39 40.98947 -112.03134 34143 ft 409 kts 85°
2026-05-07 15:39 40.98397 -111.99382 34143 ft 426 kts 110°
2026-05-07 15:39 40.96796 -111.96100 34137 ft 437 kts 134°
2026-05-07 15:40 40.94333 -111.93747 34121 ft 441 kts 158°
2026-05-07 15:40 40.91389 -111.92739 34134 ft 437 kts 182°
2026-05-07 15:40 40.88412 -111.93157 34156 ft 429 kts 198°
2026-05-07 15:40 40.85494 -111.94050 34138 ft 431 kts 198°
2026-05-07 15:41 40.79650 -111.95871 34143 ft 430 kts 202°
2026-05-07 15:41 40.77029 -111.97552 34135 ft 411 kts 226°
2026-05-07 15:41 40.75192 -112.00292 34147 ft 390 kts 251°
2026-05-07 15:42 40.74402 -112.03583 34149 ft 369 kts 275°
2026-05-07 15:42 40.74737 -112.06816 34142 ft 350 kts 298°
2026-05-07 15:42 40.76907 -112.12542 34122 ft 350 kts 302°
2026-05-07 15:43 40.79136 -112.18263 34111 ft 351 kts 302°
2026-05-07 15:43 40.80168 -112.21191 34096 ft 356 kts 291°
2026-05-07 15:43 40.80534 -112.24457 34098 ft 365 kts 278°
2026-05-07 15:44 40.81005 -112.31103 34086 ft 362 kts 284°
2026-05-07 15:44 40.81745 -112.37661 34040 ft 361 kts 284°
2026-05-07 15:45 40.82647 -112.44138 34009 ft 352 kts 298°
2026-05-07 15:45 40.83894 -112.46849 34005 ft 344 kts 316°
2026-05-07 15:45 40.85733 -112.48824 34016 ft 342 kts 329°
2026-05-07 15:46 40.91966 -112.53428 34009 ft 343 kts 325°
2026-05-07 15:46 40.93703 -112.55584 34002 ft 346 kts 308°
2026-05-07 15:47 40.94820 -112.58425 34011 ft 354 kts 290°
2026-05-07 15:47 40.95143 -112.61695 34010 ft 367 kts 272°
2026-05-07 15:47 40.94586 -112.65033 34002 ft 381 kts 253°
2026-05-07 15:47 40.93132 -112.68036 33995 ft 398 kts 231°
2026-05-07 15:48 40.90899 -112.70224 33998 ft 415 kts 209°
2026-05-07 15:48 40.88074 -112.71210 34015 ft 429 kts 185°
2026-05-07 15:48 40.85104 -112.70721 34011 ft 435 kts 160°
2026-05-07 15:48 40.82461 -112.68811 34016 ft 435 kts 136°
2026-05-07 15:49 40.80559 -112.65784 34015 ft 426 kts 111°
2026-05-07 15:49 40.79683 -112.62149 34012 ft 411 kts 87°
2026-05-07 15:49 40.79816 -112.58449 34016 ft 402 kts 74°
2026-05-07 15:50 40.80903 -112.51241 34021 ft 400 kts 70°
2026-05-07 15:50 40.82011 -112.44017 34041 ft 403 kts 73°
2026-05-07 15:51 40.83621 -112.37126 34040 ft 383 kts 49°
2026-05-07 15:51 40.85278 -112.34474 34048 ft 369 kts 33°
2026-05-07 15:51 40.87362 -112.32619 34064 ft 357 kts 18°
2026-05-07 15:51 40.89686 -112.31619 34059 ft 348 kts
2026-05-07 15:52 40.92080 -112.31455 34062 ft 343 kts 352°
2026-05-07 15:52 40.94402 -112.32074 34055 ft 340 kts 339°
2026-05-07 15:52 40.96522 -112.33439 34042 ft 340 kts 326°
2026-05-07 15:52 40.98319 -112.35479 34033 ft 343 kts 313°
2026-05-07 15:53 40.99674 -112.38088 34036 ft 349 kts 300°
2026-05-07 15:53 41.00493 -112.41131 34018 ft 356 kts 287°
2026-05-07 15:53 41.00696 -112.44429 34016 ft 365 kts 275°
2026-05-07 15:54 41.00191 -112.51176 34013 ft 371 kts 268°
2026-05-07 15:54 40.99339 -112.57928 34017 ft 372 kts 267°
2026-05-07 15:55 40.98015 -112.64585 34004 ft 386 kts 248°
2026-05-07 15:55 40.96418 -112.67510 33998 ft 401 kts 231°
2026-05-07 15:55 40.94170 -112.69774 34014 ft 415 kts 213°
2026-05-07 15:55 40.91422 -112.71067 33996 ft 427 kts 192°
2026-05-07 15:56 40.88436 -112.71145 34007 ft 435 kts 172°
2026-05-07 15:56 40.85555 -112.69928 34011 ft 437 kts 150°
2026-05-07 15:56 40.83124 -112.67556 34005 ft 434 kts 129°
2026-05-07 15:56 40.81408 -112.64344 34013 ft 427 kts 109°
2026-05-07 15:57 40.80545 -112.60666 34012 ft 415 kts 90°
2026-05-07 15:57 40.80583 -112.56939 34011 ft 400 kts 72°
2026-05-07 15:57 40.80957 -112.54558 34019 ft 400 kts 71°
2026-05-07 15:58 40.81944 -112.46053 34009 ft 405 kts 76°
2026-05-07 15:58 40.82923 -112.38814 34043 ft 390 kts 59°
2026-05-07 15:58 40.84259 -112.35798 34051 ft 375 kts 42°
2026-05-07 15:59 40.85480 -112.34164 34050 ft 365 kts 31°
2026-05-07 15:59 40.87598 -112.32420 34057 ft 355 kts 17°
2026-05-07 15:59 40.89925 -112.31487 34062 ft 347 kts
2026-05-07 15:59 40.92309 -112.31355 34052 ft 341 kts 351°
2026-05-07 16:00 40.94617 -112.32000 34050 ft 339 kts 339°